CAPE
0 0 0 0 0 0 0 0 0 0 0 0 0 0 0 0 0 0 0 0 0 0 0 0 0 0 0 0 0 0 0 0 0 0 0 3 7 2 0 0 0 0 0 0
0 0 0 0 0 0 0 0 0 0 0 0 0 0 0 0 0 0 0 0 0 0 0 0 0 0 0 0 0 0 1 1 0 0 0 0 0 10 4 1 0 0 0 0
0 0 0 0 0 0 0 0 0 0 0 0 0 0 0 0 0 0 0 0 0 0 0 0 0 0 0 0 0 1 2 1 1 1 0 0 0 1 0 0 0 0 0 0
0 0 0 0 0 0 0 0 0 0 0 0 0 0 0 0 0 0 0 0 0 0 0 0 0 0 0 0 0 0 0 1 1 1 1 0 1 1 1 0 2 6 0 0
0 0 0 0 0 0 0 0 0 0 0 0 0 0 0 0 0 0 0 0 0 0 0 0 0 0 0 0 0 0 0 0 1 3 2 2 1 2 0 0 0 0 3 0
0 0 0 0 0 0 0 0 0 0 0 0 0 0 0 0 0 0 0 0 0 0 0 0 0 0 0 0 0 0 0 0 0 1 3 3 3 2 2 2 1 0 0 0
0 0 0 0 0 0 0 0 0 0 0 0 0 0 0 0 0 0 0 0 0 0 0 0 0 0 0 0 0 0 0 0 0 0 1 4 5 3 2 3 4 2 3 3
0 0 0 0 0 0 0 0 0 0 0 0 0 0 0 0 0 0 0 0 0 0 0 0 0 0 0 0 0 0 0 0 0 1 1 0 2 4 6 3 3 3 4 4
0 0 0 0 0 0 0 0 0 0 0 0 0 0 0 0 0 0 0 0 0 0 0 0 0 0 0 0 0 0 0 0 1 2 4 3 3 2 2 1 2 3 1 1
0 0 0 0 0 0 0 0 0 0 0 0 0 0 0 0 0 0 0 0 0 0 0 0 0 0 0 0 0 0 0 0 0 1 4 8 5 3 3 2 2 1 3 2
0 0 0 0 0 0 0 0 0 0 0 0 0 0 0 0 0 0 0 0 0 0 0 0 0 0 0 0 0 0 0 0 0 0 0 1 6 8 7 8 7 5 3 2
0 0 0 0 0 0 0 0 0 0 0 0 0 0 0 0 0 0 0 0 0 0 0 0 0 0 0 0 0 0 0 0 0 0 0 0 0 1 2 5 8 9 5 3
0 0 0 0 0 0 0 0 0 0 0 0 0 0 0 0 0 0 0 0 0 0 0 0 0 0 0 0 0 0 0 0 0 0 0 0 2 2 2 2 2 1 5 8
0 0 0 0 0 0 0 0 0 0 0 0 0 1 0 0 0 0 0 0 0 0 0 0 0 0 1 1 1 1 2 1 3 2 1 1 4 3 1 2 1 3 4 3
0 0 0 0 0 0 0 0 0 0 0 0 0 0 0 0 0 0 0 0 0 0 0 0 0 1 0 0 0 0 0 0 0 0 0 0 2 1 0 0 0 0 0 1
0 0 0 0 0 0 0 0 0 0 0 0 0 0 0 0 0 0 0 0 0 0 0 0 0 0 0 0 1 2 0 0 1 0 0 0 1 0 0 0 0 0 0 0
0 0 0 0 0 0 0 0 0 0 0 0 0 0 0 0 0 0 0 0 0 0 0 0 0 0 0 1 1 0 0 1 0 0 0 0 0 0 0 0 0 0 0 0
0 0 0 1 0 0 0 0 0 0 0 0 0 0 0 0 0 0 0 0 0 0 0 0 1 0 1 2 0 0 0 0 0 1 1 1 0 0 0 0 0 0 0 1
0 0 0 2 2 0 0 0 0 0 0 0 0 0 0 0 0 0 0 0 0 0 0 1 0 0 0 0 0 0 0 0 0 0 1 0 0 0 0 0 0 0 0 0
0 0 0 0 0 0 0 0 0 0 0 0 0 0 0 0 0 0 0 0 0 0 0 1 1 2 0 0 0 0 0 0 0 0 0 0 0 0 0 0 0 0 0 0
0 0 1 6 5 0 0 0 0 0 0 0 0 0 0 0 0 0 0 0 0 1 0 0 0 1 0 1 1 0 0 0 0 0 0 0 0 0 0 0 0 0 0 0
0 0 0 0 0 0 0 0 0 0 0 0 0 0 0 0 0 0 0 0 0 0 0 0 0 0 0 0 0 0 0 0 0 0 0 0 0 0 0 0 0 0 0 0
0 0 0 0 1 0 0 0 0 0 0 0 0 0 0 0 0 0 0 0 0 0 0 0 0 0 0 0 0 0 0 0 0 0 0 0 0 0 0 0 0 0 0 1
0 0 0 0 0 0 0 0 0 0 0 0 0 0 0 0 0 0 0 0 0 0 0 0 0 0 0 0 0 0 0 0 0 0 0 0 0 0 0 0 1 2 4 4
0 0 0 0 0 0 0 0 0 0 0 0 0 0 0 0 0 0 0 0 0 0 0 0 0 0 0 0 0 0 0 0 0 0 0 0 0 0 0 1 3 7 7 10
0 0 0 0 0 0 0 0 0 0 0 0 0 0 0 0 0 0 0 0 0 0 0 0 0 0 0 0 0 0 0 0 0 0 0 0 3 3 3 7 7 9 25 37
CIN
0 0 0 0 0 0 0 0 0 0 0 0 0 0 0 0 0 0 0 0 0 0 0 0 0 0 0 0 0 0 0 0 0 0 0 -1 0 0 0 0 0 0 0 0
0 0 0 0 0 0 0 0 0 0 0 0 0 0 0 0 0 0 0 0 0 0 0 0 0 0 0 0 0 0 0 0 0 0 0 0 0 -1 -1 0 0 0 0 0
0 0 0 0 0 0 0 0 0 0 0 0 0 0 0 0 0 0 0 0 0 0 0 0 0 0 0 0 0 0 0 0 0 0 0 0 0 -1 0 0 0 0 0 0
0 0 0 0 0 0 0 0 0 0 0 0 0 0 0 0 0 0 0 0 0 0 0 0 0 0 0 0 0 0 0 0 0 0 0 0 0 0 0 0 -3 0 0 0
0 0 0 0 0 0 0 0 0 0 0 0 0 0 0 0 0 0 0 0 0 0 0 0 0 0 0 0 0 0 0 0 0 0 0 0 0 0 0 0 0 -3 0 0
0 0 0 0 0 0 0 0 0 0 0 0 0 0 0 0 0 0 0 0 0 0 0 0 0 0 0 0 0 0 0 0 0 0 0 0 0 0 0 0 0 0 0 0
0 0 0 0 0 0 0 0 0 0 0 0 0 0 0 0 0 0 0 0 0 0 0 0 0 0 0 0 0 0 0 0 0 0 0 0 0 0 0 0 0 0 0 0
0 0 0 0 0 0 0 0 0 0 0 0 0 0 0 0 0 0 0 0 0 0 0 0 0 0 0 0 0 0 0 0 0 0 0 0 0 0 0 0 0 0 0 0
0 0 0 0 0 0 0 0 0 0 0 0 0 0 0 0 0 0 0 0 0 0 0 0 0 0 0 0 0 0 0 0 0 0 0 0 0 0 0 0 0 0 0 0
0 0 0 0 0 0 0 0 0 0 0 0 0 0 0 0 0 0 0 0 0 0 0 0 0 0 0 0 0 0 0 0 0 0 0 0 0 0 0 0 0 0 0 0
0 0 0 0 0 0 0 0 0 0 0 0 0 0 0 0 0 0 0 0 0 0 0 0 0 0 0 0 0 0 0 0 0 0 0 0 0 0 0 0 0 0 0 0
0 0 0 0 0 0 0 0 0 0 0 0 0 0 0 0 0 0 0 0 0 0 0 0 0 0 0 0 0 0 0 0 0 0 0 0 0 0 0 0 0 0 0 0
0 0 0 0 0 0 0 0 0 0 0 0 0 0 0 0 0 0 0 0 0 0 0 0 0 0 0 0 0 0 0 0 0 0 0 0 0 0 0 0 0 0 0 0
0 0 0 0 0 0 0 0 0 0 0 0 0 0 0 0 0 0 0 0 0 0 0 0 0 0 0 0 0 0 0 0 0 0 0 0 0 0 0 0 0 0 0 0
0 0 0 0 0 0 0 0 0 0 0 0 0 0 0 0 0 0 0 0 0 0 0 0 0 0 0 0 0 0 0 0 0 0 0 0 0 0 0 0 0 0 0 0
0 0 0 0 0 0 0 0 0 0 0 0 0 0 0 0 0 0 0 0 0 0 0 0 0 0 0 0 0 0 0 0 0 0 0 0 0 0 0 0 0 0 0 0
0 0 0 0 0 0 0 0 0 0 0 0 0 0 0 0 0 0 0 0 0 0 0 0 0 0 0 0 0 0 0 0 0 0 0 0 0 0 0 0 0 0 0 0
0 0 0 0 0 0 0 0 0 0 0 0 0 0 0 0 0 0 0 0 0 0 0 0 0 0 0 0 0 0 0 0 0 0 0 0 0 0 0 0 0 0 0 0
0 0 0 0 0 0 0 0 0 0 0 0 0 0 0 0 0 0 0 0 0 0 0 0 0 0 0 0 0 0 0 0 0 0 0 0 0 0 0 0 0 0 0 0
0 0 0 0 0 0 0 0 0 0 0 0 0 0 0 0 0 0 0 0 0 0 0 0 0 0 0 0 0 0 0 0 0 0 0 0 0 0 0 0 0 0 0 0
0 0 0 0 0 0 0 0 0 0 0 0 0 0 0 0 0 0 0 0 0 0 0 0 0 0 0 0 0 0 0 0 0 0 0 0 0 0 0 0 0 0 0 0
0 0 0 0 0 0 0 0 0 0 0 0 0 0 0 0 0 0 0 0 0 0 0 0 0 0 0 0 0 0 0 0 0 0 0 0 0 0 0 0 0 0 0 0
0 0 0 0 0 0 0 0 0 0 0 0 0 0 0 0 0 0 0 0 0 0 0 0 0 0 0 0 0 0 0 0 0 0 0 0 0 0 0 0 0 0 0 0
0 0 0 0 0 0 0 0 0 0 0 0 0 0 0 0 0 0 0 0 0 0 0 0 0 0 0 0 0 0 0 0 0 0 0 0 0 0 0 0 0 0 0 0
0 0 0 0 0 0 0 0 0 0 0 0 0 0 0 0 0 0 0 0 0 0 0 0 0 0 0 0 0 0 0 0 0 0 0 0 0 0 0 0 0 0 0 0
0 0 0 0 0 0 0 0 0 0 0 0 0 0 0 0 0 0 0 0 0 0 0 0 0 0 0 0 0 0 0 0 0 0 0 0 0 0 0 0 0 0 0 0
Wind_Speed
11 9 12 14 15 11 6 4 7 8 7 10 17 14 10 10 13 14 15 16 17 18 17 18 19 20 21 21 21 21 21 21 16 13 12 7 5 4 4 4 3 4 4 4
6 15 15 6 9 12 10 10 10 5 5 3 15 13 11 11 13 14 14 15 16 16 18 19 20 21 20 20 20 21 21 20 17 13 11 8 7 5 5 3 3 4 4 3
11 3 3 9 9 11 13 13 11 6 5 8 17 9 11 11 12 14 15 14 15 16 17 19 20 21 20 22 20 19 19 19 18 20 13 11 9 5 4 4 4 3 5 3
11 4 6 8 12 13 12 11 12 7 8 9 16 3 11 11 11 12 13 14 15 16 16 16 17 19 20 20 18 19 19 19 18 20 16 17 10 8 11 8 7 4 4 4
4 7 10 11 12 9 5 0 8 10 13 13 11 7 9 13 9 10 12 13 14 15 15 17 17 17 17 17 17 16 17 18 19 18 18 13 15 10 10 12 17 12 5 5
1 2 4 0 3 5 9 8 7 5 6 9 16 14 9 5 6 8 9 12 13 14 15 16 16 16 17 17 16 16 18 17 17 18 18 18 17 15 13 14 12 12 12 12
10 8 3 2 5 3 8 10 5 6 6 8 0 13 12 9 8 8 8 10 12 13 14 15 17 17 17 19 19 17 19 18 18 17 17 17 16 15 14 13 10 13 10 11
12 6 9 2 4 4 14 13 6 7 10 7 5 5 8 9 8 8 8 9 11 13 13 15 16 16 17 18 18 18 19 18 19 17 17 14 15 10 9 12 10 8 9 10
6 6 5 6 2 3 8 8 3 6 7 5 9 6 5 8 8 6 8 9 11 12 13 14 14 15 15 16 17 17 18 17 18 18 16 15 13 13 12 13 11 9 11 11
3 4 1 3 2 4 3 3 4 6 6 11 9 9 7 10 7 5 7 8 10 11 12 13 13 14 14 15 15 16 16 17 16 17 15 13 15 14 12 10 12 13 12 13
3 4 6 4 7 6 2 4 3 4 3 5 10 7 8 10 6 4 6 8 9 11 12 13 13 13 13 14 15 15 16 17 16 16 15 14 13 14 13 12 12 11 11 13
3 3 3 5 6 7 4 5 4 4 5 1 4 5 4 7 5 5 5 6 9 10 12 13 13 13 14 14 14 15 15 15 15 15 15 14 14 13 13 13 13 14 14 12
2 1 4 5 4 2 4 4 3 2 1 4 5 5 4 4 4 5 6 7 8 9 10 12 12 12 12 13 13 13 13 14 14 14 13 13 12 13 12 12 13 13 13 13
2 3 4 3 6 3 4 4 5 3 1 3 1 7 8 4 4 6 8 8 8 7 10 13 12 11 10 10 10 10 10 10 11 11 11 12 11 11 12 12 12 12 11 12
3 3 3 6 5 5 4 4 5 2 4 3 5 5 6 3 5 6 7 7 7 6 10 12 11 11 11 11 11 10 10 10 11 10 11 11 10 10 12 11 11 11 11 10
2 3 3 2 4 2 4 4 4 4 3 3 2 4 3 2 4 5 8 6 5 7 11 13 12 12 11 11 11 12 11 11 11 11 11 11 10 10 11 11 11 12 11 11
3 4 3 3 3 2 4 4 3 3 6 5 3 5 3 2 6 8 7 5 5 9 12 12 12 11 11 11 11 12 12 12 11 12 11 11 11 12 12 11 12 12 12 12
6 5 1 4 4 4 5 4 4 4 3 3 5 4 3 5 9 11 4 1 6 11 13 12 10 10 10 10 9 10 10 11 11 11 10 10 11 12 12 12 12 12 11 12
4 3 3 3 6 5 2 3 3 4 3 3 3 3 5 9 11 4 3 2 10 11 10 10 9 11 10 9 9 9 10 10 10 10 10 11 12 12 13 13 13 12 12 12
4 3 1 3 3 3 5 5 3 1 3 4 3 4 8 10 6 5 7 12 12 11 9 10 11 10 10 10 9 10 11 10 10 10 12 13 13 13 14 14 14 12 12 14
3 2 2 4 3 4 4 4 3 3 4 4 4 5 6 5 7 13 14 13 13 12 12 13 10 10 10 10 11 13 13 13 13 14 15 14 14 15 14 14 13 13 13 14
2 1 3 1 3 4 6 5 4 4 3 1 5 5 7 10 13 13 14 14 14 14 14 13 12 12 12 13 12 14 14 14 14 14 15 15 15 12 12 15 13 14 12 13
2 4 3 4 4 6 3 3 5 4 2 4 5 5 8 11 13 14 14 14 13 14 13 13 13 14 13 13 13 14 14 14 14 14 15 14 14 14 13 14 13 11 11 10
3 0 1 3 4 3 2 2 4 2 2 6 5 8 9 12 13 14 14 14 13 13 13 13 14 14 15 14 14 14 14 14 14 15 15 13 12 14 12 10 10 9 9 9
3 4 3 3 2 2 3 5 5 2 4 6 8 10 12 12 14 13 14 14 13 13 13 13 14 14 16 15 15 14 14 14 14 14 12 12 11 11 11 11 9 9 9 12
2 3 1 3 3 2 2 3 2 6 6 8 10 12 11 12 14 14 14 13 13 14 14 14 15 16 16 16 16 15 14 14 13 13 11 10 10 9 9 10 10 17 22 25
Wind_Direction
188 203 214 219 224 257 319 213 190 134 139 166 124 112 89 71 66 62 53 44 40 37 31 28 26 22 17 16 13 12 9 4 4 356 350 313 264 258 255 258 258 260 228 211
171 226 228 239 238 238 237 238 230 164 164 187 131 110 94 81 74 64 57 49 39 31 27 24 22 24 22 15 12 12 12 8 6 356 343 334 340 342 330 315 282 262 256 227
219 85 296 195 207 218 229 235 225 236 154 217 131 144 141 102 87 72 60 55 47 35 26 20 19 21 19 18 12 11 12 11 10 3 357 353 346 304 276 265 282 268 275 259
238 170 152 192 221 217 236 220 245 213 203 229 192 206 163 144 98 65 51 45 38 32 30 26 20 19 17 15 13 14 13 13 13 12 13 14 9 1 345 344 348 326 301 288
178 183 202 219 225 222 261 175 217 218 222 258 206 248 108 157 119 61 49 42 37 32 28 24 23 23 22 18 16 14 15 16 15 17 19 16 15 359 352 2 354 356 350 330
57 63 215 19 97 224 131 132 129 177 216 237 234 214 146 167 49 76 57 42 35 29 28 27 21 21 20 18 17 18 17 19 16 17 18 19 16 8 11 8 3 353 355 354
200 208 131 218 173 165 201 179 179 205 204 242 228 201 69 103 82 68 55 44 36 30 25 21 19 17 16 15 15 13 13 18 17 19 19 16 14 14 14 10 3 1 357 355
193 200 181 133 252 222 202 213 227 225 219 218 146 216 114 114 104 91 65 52 39 31 25 22 19 15 14 13 14 11 11 12 12 15 18 15 15 12 10 7 5 2 358 351
208 138 122 58 342 301 152 221 317 282 260 284 125 101 137 148 123 98 74 53 38 26 22 18 16 14 11 11 11 9 8 10 9 10 7 12 14 11 7 3 3 358 356 354
74 163 38 80 240 81 310 13 187 213 243 236 224 131 100 174 138 99 56 37 26 22 16 13 13 11 10 8 7 6 8 7 6 4 5 3 5 5 6 2 1 359 353 351
326 275 119 191 24 13 216 207 243 297 291 270 269 106 14 105 90 68 47 31 19 16 11 9 6 8 7 5 4 3 2 2 1 360 357 360 359 359 359 360 358 356 351 351
37 356 124 53 91 45 40 19 332 260 226 290 299 112 80 88 71 40 41 25 12 12 7 5 2 1 1 1 359 359 357 357 354 352 350 350 352 354 354 352 349 348 350 351
3 135 145 167 190 148 54 39 44 87 22 232 288 108 129 110 83 49 10 16 0 0 359 358 356 356 354 352 350 350 348 350 344 347 345 343 346 347 345 342 341 341 340 340
5 63 26 41 60 48 119 81 42 22 222 1 55 130 173 110 34 11 360 356 346 355 355 351 348 346 344 343 340 338 335 338 334 335 334 332 336 338 335 330 332 331 332 330
42 90 78 83 57 63 76 42 20 353 49 270 59 88 129 43 343 334 320 325 334 346 350 345 338 336 335 335 334 335 331 332 329 328 327 325 326 332 328 326 328 326 327 325
13 110 106 89 52 70 94 44 47 60 79 117 127 118 95 288 279 318 338 336 331 346 340 334 331 330 330 329 328 330 327 327 327 324 322 322 324 329 324 325 325 325 323 321
110 130 160 119 105 107 222 37 24 83 60 350 277 71 42 1 335 330 327 327 347 338 328 325 323 323 324 319 326 320 321 321 320 321 321 321 326 327 323 323 323 323 322 317
142 124 58 126 146 232 81 53 27 21 87 78 114 74 6 317 299 298 288 259 337 323 319 318 316 312 307 313 306 303 306 308 313 313 313 322 324 318 320 321 321 320 316 316
110 150 117 188 204 110 171 53 23 20 96 96 103 36 353 327 293 138 112 1 319 315 309 303 302 300 303 312 305 301 302 307 305 305 317 319 317 317 319 318 317 314 313 312
100 55 270 163 241 274 60 99 86 353 219 126 70 357 351 337 331 79 347 329 319 310 301 302 301 307 305 297 302 303 308 306 305 317 316 317 315 315 314 315 314 312 311 307
122 64 211 200 252 124 114 119 147 240 69 123 6 334 326 308 310 315 318 312 308 313 309 307 313 297 298 308 305 310 309 308 316 319 314 313 313 312 309 311 310 309 307 305
357 240 115 128 218 223 152 142 238 81 156 315 302 313 296 296 300 301 302 308 311 309 312 311 309 307 308 308 309 306 305 313 316 312 311 310 311 310 309 308 306 302 308 309
183 360 49 359 50 102 82 35 111 86 80 338 301 305 302 294 296 303 304 302 305 307 309 309 309 307 306 305 306 302 307 310 309 306 306 307 308 308 307 302 309 309 301 307
96 144 66 199 139 141 41 101 163 156 332 307 277 291 295 288 293 294 297 304 303 304 306 307 306 300 302 307 305 301 305 306 304 303 304 304 304 300 304 305 301 303 303 303
29 174 115 96 137 93 191 209 174 226 305 266 269 276 281 281 287 295 296 298 300 301 302 302 293 301 301 303 300 302 302 302 301 300 299 298 294 298 300 295 291 285 292 284
190 106 250 61 120 348 72 125 199 275 276 277 289 294 288 283 291 293 291 293 294 294 292 295 301 295 297 300 297 297 297 297 297 295 291 293 296 296 292 290 291 288 295 298